Location: 5810 Zion Rd, Cleves, OH 45002, USA
(39.1922°N, 84.7113°W)
Time: 10:15:46
(UTC-05:00)

Transit 4A - All Passes

Search period start: 11 December 2019 00:00
Search period end: 21 December 2019 00:00
Orbit: 870 x 975 km, 66.8° (Epoch: 11 December)

Date Brightness Start Highest point End Pass type
(mag) Time Alt. Az. Time Alt. Az. Time Alt. Az.
11 Dec - 01:50:31 10° NNW 01:56:04 42° NE 02:01:32 10° SE night (unlit)
11 Dec - 03:37:15 10° NW 03:42:10 29° WSW 03:47:02 10° SSW night (unlit)
11 Dec - 16:55:31 10° SSW 17:01:42 73° ESE 17:07:47 10° NNE daylight
11 Dec - 18:44:03 10° W 18:48:38 21° NW 18:53:09 10° N visible
12 Dec - 00:15:42 10° NNE 00:17:54 12° NE 00:20:06 10° ENE night (unlit)
12 Dec - 01:59:41 10° NNW 02:05:30 62° ENE 02:11:14 10° SE night (unlit)
12 Dec - 03:47:23 10° WNW 03:51:14 18° WSW 03:55:05 10° SSW night (unlit)
12 Dec - 15:21:52 10° SE 15:25:23 16° ESE 15:28:51 10° ENE daylight
12 Dec - 17:04:48 10° SSW 17:11:01 78° WNW 17:17:07 10° NNE daylight
12 Dec - 18:54:51 10° WNW 18:58:21 15° NW 19:01:48 10° N visible
13 Dec - 00:24:00 10° N 00:27:42 17° NE 00:31:21 10° E night (unlit)
13 Dec - 02:08:59 10° NNW 02:14:51 88° WSW 02:20:39 10° SSE night (unlit)
13 Dec - 03:58:43 10° W 04:00:15 11° W 04:01:48 10° WSW night (unlit)
13 Dec - 15:29:35 10° SSE 15:34:27 24° ESE 15:39:13 10° NE daylight
13 Dec - 17:14:22 10° SW 17:20:25 53° WNW 17:26:21 10° NNE daylight
13 Dec - 19:06:35 10° NW 19:08:11 11° NW 19:09:47 10° NNW visible
14 Dec - 00:32:46 10° N 00:37:24 23° NE 00:41:57 10° E night (unlit)
14 Dec - 02:18:24 10° NW 02:24:07 58° WSW 02:29:48 10° SSE night (unlit)
14 Dec - 15:37:58 10° S 15:43:35 37° ESE 15:49:06 10° NE daylight
14 Dec - 17:24:14 10° WSW 17:29:54 37° NW 17:35:28 10° NNE daylight
15 Dec - 00:41:43 10° NNW 00:46:58 33° NE 00:52:10 10° ESE night (unlit)
15 Dec - 02:28:00 10° NW 02:33:19 38° WSW 02:38:36 10° S night (unlit)
15 Dec - 15:46:45 10° S 15:52:48 56° ESE 15:58:42 10° NE daylight
15 Dec - 17:34:24 10° WSW 17:39:28 26° NW 17:44:28 10° N visible
16 Dec - 00:50:49 10° NNW 00:56:28 48° NE 01:02:03 10° SE night (unlit)
16 Dec - 02:37:51 10° NW 02:42:27 24° WSW 02:47:01 10° SSW night (unlit)
16 Dec - 14:14:51 10° ESE 14:16:37 11° E 14:18:23 10° E daylight
16 Dec - 15:55:52 10° SSW 16:02:04 83° ESE 16:08:09 10° NNE daylight
16 Dec - 17:44:55 10° W 17:49:08 19° NW 17:53:18 10° N visible
16 Dec - 23:15:36 10° N 23:18:27 14° NE 23:21:16 10° ENE night (unlit)
17 Dec - 01:00:01 10° NNW 01:05:52 72° ENE 01:11:40 10° SE night (unlit)
17 Dec - 02:48:13 10° WNW 02:51:30 15° WSW 02:54:46 10° SW night (unlit)
17 Dec - 14:21:34 10° SE 14:25:39 18° ESE 14:29:40 10° ENE daylight
17 Dec - 16:05:15 10° SW 16:11:25 68° WNW 16:17:27 10° NNE daylight
17 Dec - 17:55:58 10° WNW 17:58:53 14° NW 18:01:48 10° N visible
17 Dec - 23:24:08 10° N 23:28:12 19° NE 23:32:13 10° E night (unlit)
18 Dec - 01:09:21 10° NNW 01:15:11 77° WSW 01:20:59 10° SSE night (unlit)
18 Dec - 14:29:34 10° SSE 14:34:44 28° ESE 14:39:50 10° NE daylight
18 Dec - 16:14:56 10° SW 16:20:50 46° NW 16:26:38 10° NNE daylight
18 Dec - 23:32:59 10° N 23:37:51 26° NE 23:42:40 10° ESE night (unlit)
19 Dec - 01:18:50 10° NW 01:24:26 50° WSW 01:30:00 10° S night (unlit)
19 Dec - 14:38:07 10° S 14:43:55 43° ESE 14:49:36 10° NE daylight
19 Dec - 16:24:53 10° WSW 16:30:21 32° NW 16:35:43 10° NNE daylight
19 Dec - 23:41:59 10° NNW 23:47:24 38° NE 23:52:45 10° ESE night (unlit)
20 Dec - 01:28:31 10° NW 01:33:36 32° WSW 01:38:41 10° S night (unlit)
20 Dec - 14:47:01 10° SSW 14:53:09 65° ESE 14:59:08 10° NE daylight
20 Dec - 16:35:11 10° W 16:39:57 23° NW 16:44:40 10° N daylight
20 Dec - 22:07:41 10° NNE 22:09:10 11° NE 22:10:38 10° NE night (unlit)
